Regional Weather Roundup
Issued by NWS

Home | Current Version | Previous Version | Text Only | Print | Product List | Glossary On
Versions: 1 2 3 4 5 6 7 8 9 10 11 12 13 14 15 16 17 18 19 20 21 22 23 24 25 26 27
000
ASUS44 KBMX 170410
RWRAL

ALABAMA REGIONAL WEATHER ROUNDUP
NATIONAL WEATHER SERVICE BIRMINGHAM AL
1100 PM CDT WED APR 16 2014

NOTE: "FAIR" INDICATES FEW OR NO CLOUDS BELOW 12,000 FEET
WITH NO SIGNIFICANT WEATHER AND/OR OBSTRUCTIONS TO VISIBILITY.

THE REMARK "TC" DENOTES TEMPERATURE IN DEGREES CELSIUS.

ALZ001>011-014-016>018-020-170500-
NORTH ALABAMA

CITY           SKY/WX    TMP DP  RH WIND       PRES   REMARKS
MUSCLE SHOALS  PTCLDY    46  37  71 SE5       30.21R
HUNTSVILLE     CLEAR     48  38  68 SE7       30.22R
DECATUR        CLEAR     52  35  52 SE5       30.22R
HALEYVILLE     FAIR      41  37  85 CALM      30.23R
GADSDEN        NOT AVBL
$$

ALZ012-013-022-023-030>036-040>044-170500-
WEST CENTRAL ALABAMA

CITY           SKY/WX    TMP DP  RH WIND       PRES   REMARKS
TUSCALOOSA     PTCLDY    49  41  74 N3        30.21S
$$

ALZ015-024>027-033>036-040>044-170500-
CENTRAL ALABAMA

CITY           SKY/WX    TMP DP  RH WIND       PRES   REMARKS
BIRMINGHAM     CLEAR     54  34  46 VRB3      30.25R
MONTGOMERY     CLEAR     49  39  68 E5        30.25R
SHELBY CO ARPT PTCLDY    52  37  56 CALM      30.24R
MAXWELL AFB    CLEAR     60  40  47 E10       30.24R
GREENVILLE     FAIR      50  38  63 E6        30.21S
$$

ALZ019-021-028-029-037-038-045>048-170500-
EAST CENTRAL ALABAMA

CITY           SKY/WX    TMP DP  RH WIND       PRES   REMARKS
ANNISTON       CLEAR     50  35  56 NE3       30.27R
ALEXANDER CITY PTCLDY    55  33  41 SE6       30.27R
AUBURN         PTCLDY    48  34  57 E9        30.29R
$$

ALZ051>064-170500-
SOUTHWEST ALABAMA

CITY           SKY/WX    TMP DP  RH WIND       PRES   REMARKS
MOBILE         PTCLDY    46  45  96 CALM      30.18R
BROOKLEY FIELD PTCLDY    50  47  89 N3        30.19R
EVERGREEN      PTCLDY    47  43  86 CALM      30.21S
$$

ALZ049-050-065>069-170500-
SOUTHEAST ALABAMA

CITY           SKY/WX    TMP DP  RH WIND       PRES   REMARKS
DOTHAN         CLEAR     55  41  59 E14       30.26S
OZARK          CLEAR     48  41  77 NE7       30.22R
TROY           CLEAR     49  38  65 NE5       30.24R
EUFAULA        FAIR      50  41  71 NE5       30.25S
$$



USA.gov is the U.S. government's official web portal to all federal, state and local government web resources and services.